| time (UTC) | temp F | wind direction | speed MPH | gust MPH | rain 1hr in | rain 24hr in | rain mn in | humidity % | barometer mb |
| 20260901191527 | 82 | 330 | 7.0 | 15.0 | 0.00 | 0.00 | 0.00 | 36 | 1025.5 |
| 20260901190030 | 82 | 342 | 9.0 | 15.0 | 0.00 | 0.00 | 0.00 | 37 | 1025.6 |
| 20260901184520 | 81 | 11 | 6.0 | 11.0 | 0.00 | 0.00 | 0.00 | 39 | 1025.5 |
| 20260901183016 | 81 | 12 | 8.0 | 12.0 | 0.00 | 0.00 | 0.00 | 38 | 1025.6 |
| 20260901181518 | 82 | 28 | 7.0 | 12.0 | 0.00 | 0.00 | 0.00 | 37 | 1025.8 |
| 20260901180033 | 81 | 22 | 2.0 | 16.0 | 0.00 | 0.00 | 0.00 | 37 | 1025.9 |
| 20260901174530 | 80 | 273 | 7.0 | 11.0 | 0.00 | 0.00 | 0.00 | 39 | 1026.2 |
| 20260901173026 | 78 | 271 | 4.0 | 8.0 | 0.00 | 0.00 | 0.00 | 42 | 1026.2 |
| 20260901171523 | 77 | 195 | 5.0 | 10.0 | 0.00 | 0.00 | 0.00 | 43 | 1026.3 |
| 20260901170016 | 77 | 304 | 3.0 | 9.0 | 0.00 | 0.00 | 0.00 | 43 | 1026.3 |
| 20260901164516 | 77 | 302 | 6.0 | 9.0 | 0.00 | 0.00 | 0.00 | 45 | 1026.3 |
| 20260901163037 | 77 | 283 | 5.0 | 10.0 | 0.00 | 0.00 | 0.00 | 44 | 1026.1 |
| 20260901161508 | 79 | 288 | 5.0 | 9.0 | 0.00 | 0.00 | 0.00 | 43 | 1026.0 |
| 20260901160011 | 77 | 267 | 3.0 | 6.0 | 0.00 | 0.00 | 0.00 | 45 | 1025.8 |
| 20260901154505 | 77 | 293 | 2.0 | 6.0 | 0.00 | 0.00 | 0.00 | 46 | 1025.8 |
| 20260901153007 | 78 | 292 | 1.0 | 5.0 | 0.00 | 0.00 | 0.00 | 45 | 1025.9 |
| 20260901151521 | 77 | 322 | 2.0 | 5.0 | 0.00 | 0.00 | 0.00 | 48 | 1025.8 |
| 20260901150012 | 78 | 57 | 1.0 | 2.0 | 0.00 | 0.00 | 0.00 | 46 | 1025.8 |
| 20260901144514 | 74 | 72 | 2.0 | 5.0 | 0.00 | 0.00 | 0.00 | 53 | 1025.8 |
| 20260901143010 | 75 | 82 | 2.0 | 4.0 | 0.00 | 0.00 | 0.00 | 50 | 1025.7 |
| 20260901141509 | 72 | 84 | 3.0 | 5.0 | 0.00 | 0.00 | 0.00 | 56 | 1025.7 |
| 20260901140027 | 69 | 98 | 4.0 | 4.0 | 0.00 | 0.00 | 0.00 | 68 | 1025.9 |
| 20260901134527 | 66 | 60 | 2.0 | 4.0 | 0.00 | 0.00 | 0.00 | 71 | 1025.9 |
| 20260901133018 | 65 | 56 | 4.0 | 6.0 | 0.00 | 0.00 | 0.00 | 70 | 1025.6 |
| 20260901131516 | 62 | 54 | 5.0 | 6.0 | 0.00 | 0.00 | 0.00 | 77 | 1025.6 |
| 20260901130010 | 61 | 41 | 4.0 | 5.0 | 0.00 | 0.00 | 0.00 | 78 | 1025.3 |
| 20260901124512 | 62 | 22 | 5.0 | 5.0 | 0.00 | 0.00 | 0.00 | 76 | 1025.2 |
| 20260901123036 | 63 | 59 | 3.0 | 6.0 | 0.00 | 0.00 | 0.00 | 73 | 1024.9 |
| 20260901121527 | 63 | 77 | 5.0 | 5.0 | 0.00 | 0.00 | 0.00 | 73 | 1024.8 |
| 20260901120023 | 60 | 91 | 3.0 | 5.0 | 0.00 | 0.00 | 0.00 | 78 | 1024.8 |
| 20260901114520 | 60 | 70 | 5.0 | 6.0 | 0.00 | 0.00 | 0.00 | 79 | 1024.6 |
| 20260901113018 | 60 | 44 | 3.0 | 5.0 | 0.00 | 0.00 | 0.00 | 79 | 1024.4 |
| 20260901111511 | 60 | 37 | 5.0 | 8.0 | 0.00 | 0.00 | 0.00 | 80 | 1024.3 |
| 20260901110036 | 59 | 32 | 5.0 | 6.0 | 0.00 | 0.00 | 0.00 | 81 | 1024.1 |
| 20260901104530 | 61 | 40 | 4.0 | 8.0 | 0.00 | 0.00 | 0.00 | 77 | 1024.1 |
| 20260901103026 | 61 | 74 | 5.0 | 7.0 | 0.00 | 0.00 | 0.00 | 78 | 1024.2 |
| 20260901101523 | 62 | 39 | 5.0 | 6.0 | 0.00 | 0.00 | 0.00 | 78 | 1024.3 |
| 20260901100016 | 63 | 54 | 6.0 | 7.0 | 0.00 | 0.00 | 0.00 | 76 | 1024.5 |
| 20260901094515 | 62 | 55 | 6.0 | 7.0 | 0.00 | 0.00 | 0.00 | 79 | 1024.5 |
| 20260901093031 | 62 | 46 | 4.0 | 5.0 | 0.00 | 0.00 | 0.00 | 80 | 1024.5 |
| 20260901091530 | 62 | 85 | 5.0 | 6.0 | 0.00 | 0.00 | 0.00 | 80 | 1024.8 |
| 20260901090025 | 62 | 94 | 3.0 | 4.0 | 0.00 | 0.00 | 0.00 | 79 | 1025.0 |
| 20260901084526 | 63 | 202 | 4.0 | 5.0 | 0.00 | 0.00 | 0.00 | 76 | 1025.0 |
| 20260901083022 | 64 | 210 | 1.0 | 5.0 | 0.00 | 0.00 | 0.00 | 74 | 1025.1 |
| 20260901081534 | 65 | 128 | 0.0 | 0.0 | 0.00 | 0.00 | 0.00 | 67 | 1025.1 |
| 20260901080014 | 66 | 122 | 0.0 | 8.0 | 0.00 | 0.00 | 0.00 | 65 | 1025.0 |
| 20260901074509 | 68 | 86 | 4.0 | 8.0 | 0.00 | 0.00 | 0.00 | 59 | 1025.0 |
| 20260901073008 | 68 | 90 | 8.0 | 10.0 | 0.00 | 0.00 | 0.00 | 59 | 1025.0 |
| 20260901071504 | 69 | 87 | 6.0 | 13.0 | 0.00 | 0.00 | 0.00 | 56 | 1025.0 |
| 20260901070003 | 70 | 138 | 5.0 | 12.0 | 0.00 | 0.00 | 0.00 | 58 | 1025.1 |
| 20260901064504 | 71 | 264 | 4.0 | 12.0 | 0.00 | 0.00 | 0.00 | 54 | 1025.2 |
| 20260901063021 | 71 | 6 | 3.0 | 7.0 | 0.00 | 0.00 | 0.00 | 54 | 1025.1 |
| 20260901061514 | 68 | 166 | 4.0 | 8.0 | 0.00 | 0.00 | 0.00 | 61 | 1025.0 |
| 20260901060013 | 69 | 20 | 5.0 | 7.0 | 0.00 | 0.00 | 0.00 | 60 | 1024.9 |
| 20260901054505 | 71 | 33 | 5.0 | 7.0 | 0.00 | 0.00 | 0.00 | 56 | 1024.6 |
| 20260901053006 | 72 | 65 | 0.0 | 4.0 | 0.00 | 0.00 | 0.00 | 51 | 1024.3 |
| 20260901051510 | 71 | 204 | 0.0 | 10.0 | 0.00 | 0.00 | 0.00 | 53 | 1024.2 |
| 20260901050026 | 69 | 89 | 10.0 | 15.0 | 0.00 | 0.00 | 0.00 | 56 | 1023.7 |
| 20260901044520 | 68 | 70 | 12.0 | 17.0 | 0.00 | 0.00 | 0.00 | 61 | 1023.4 |
| 20260901043012 | 68 | 96 | 12.0 | 21.0 | 0.00 | 0.00 | 0.00 | 58 | 1023.4 |
| 20260901041518 | 69 | 77 | 13.0 | 21.0 | 0.00 | 0.00 | 0.00 | 55 | 1023.6 |
| 20260901040004 | 68 | 55 | 9.0 | 16.0 | 0.00 | 0.00 | 0.00 | 59 | 1023.9 |
| 20260901034504 | 72 | 77 | 10.0 | 17.0 | 0.00 | 0.00 | 0.00 | 54 | 1024.0 |
| 20260901033023 | 77 | 116 | 25.0 | 38.0 | 0.00 | 0.00 | 0.00 | 36 | 1023.4 |
| 20260901031518 | 78 | 57 | 19.0 | 29.0 | 0.00 | 0.00 | 0.00 | 34 | 1022.7 |
| 20260901030013 | 77 | 51 | 19.0 | 28.0 | 0.00 | 0.00 | 0.00 | 38 | 1022.4 |
| 20260901024513 | 74 | 33 | 13.0 | 16.0 | 0.00 | 0.00 | 0.00 | 42 | 1022.1 |
| 20260901023007 | 75 | 58 | 10.0 | 17.0 | 0.00 | 0.00 | 0.00 | 39 | 1022.0 |
| 20260901021533 | 74 | 30 | 12.0 | 16.0 | 0.00 | 0.00 | 0.00 | 40 | 1021.7 |
| 20260901020025 | 76 | 63 | 9.0 | 11.0 | 0.00 | 0.00 | 0.00 | 38 | 1021.5 |
| 20260901014538 | 77 | 56 | 8.0 | 11.0 | 0.00 | 0.00 | 0.00 | 36 | 1021.1 |
| 20260901013017 | 79 | 74 | 9.0 | 12.0 | 0.00 | 0.00 | 0.00 | 34 | 1021.1 |
| 20260901011514 | 81 | 66 | 10.0 | 16.0 | 0.00 | 0.00 | 0.00 | 32 | 1021.0 |
| 20260901010012 | 82 | 75 | 10.0 | 20.0 | 0.00 | 0.00 | 0.00 | 31 | 1021.0 |
| 20260901004533 | 83 | 74 | 10.0 | 14.0 | 0.00 | 0.00 | 0.00 | 30 | 1021.0 |
| 20260901003033 | 82 | 63 | 9.0 | 15.0 | 0.00 | 0.00 | 0.00 | 28 | 1021.2 |
| 20260901001531 | 81 | 47 | 10.0 | 18.0 | 0.00 | 0.00 | 0.00 | 30 | 1021.1 |
| 20260901000025 | 79 | 46 | 15.0 | 25.0 | 0.00 | 0.00 | 0.00 | 33 | 1021.4 |
| 20260831234516 | 78 | 37 | 18.0 | 31.0 | 0.00 | 0.00 | 0.00 | 35 | 1021.9 |
| 20260831233011 | 77 | 57 | 23.0 | 31.0 | 0.00 | 0.00 | 0.00 | 37 | 1022.0 |
| 20260831231532 | 75 | 46 | 16.0 | 23.0 | 0.00 | 0.00 | 0.00 | 46 | 1022.2 |
| 20260831230004 | 80 | 89 | 18.0 | 29.0 | 0.00 | 0.00 | 0.00 | 36 | 1021.9 |
| 20260831224506 | 82 | 333 | 9.0 | 19.0 | 0.00 | 0.00 | 0.00 | 32 | 1021.8 |
| 20260831223004 | 82 | 96 | 5.0 | 9.0 | 0.00 | 0.00 | 0.00 | 32 | 1021.9 |
| 20260831221508 | 83 | 105 | 7.0 | 13.0 | 0.00 | 0.00 | 0.00 | 33 | 1022.0 |
| 20260831220004 | 82 | 121 | 11.0 | 17.0 | 0.00 | 0.00 | 0.00 | 33 | 1022.1 |
| 20260831214519 | 81 | 347 | 13.0 | 25.0 | 0.00 | 0.00 | 0.00 | 34 | 1022.1 |
| 20260831213004 | 82 | 235 | 19.0 | 27.0 | 0.00 | 0.00 | 0.00 | 33 | 1022.3 |
| 20260831211517 | 86 | 132 | 8.0 | 14.0 | 0.00 | 0.00 | 0.00 | 30 | 1022.5 |
| 20260831210005 | 86 | 64 | 7.0 | 15.0 | 0.00 | 0.00 | 0.00 | 24 | 1022.2 |
| 20260831204517 | 86 | 63 | 13.0 | 18.0 | 0.00 | 0.00 | 0.00 | 24 | 1022.3 |
| 20260831203007 | 87 | 193 | 0.0 | 0.0 | 0.00 | 0.00 | 0.00 | 23 | 1022.7 |
| 20260831201504 | 88 | 210 | 0.0 | 6.0 | 0.00 | 0.00 | 0.00 | 26 | 1022.9 |
| 20260831200007 | 88 | 146 | 7.0 | 13.0 | 0.00 | 0.00 | 0.00 | 24 | 1023.0 |
| 20260831194512 | 89 | 257 | 8.0 | 11.0 | 0.00 | 0.00 | 0.00 | 28 | 1023.4 |
| 20260831193009 | 86 | 349 | 5.0 | 8.0 | 0.00 | 0.00 | 0.00 | 30 | 1023.6 |